Location: Dattensoll
(49.9928°N, 9.8954°E)
Time: 21:20:30
(UTC+00:00)

Meteor 1-18 Rocket - Pass Details

Date: 19 May 2025
Orbit: 836 x 907 km, 81.2° (Epoch: 15 June)

Event Time Altitude Azimuth Distance (km) Brightness Sun altitude
Exits shadow 23:14:36 36° 195° (SSW) 1,360 4.8 -20.0°
Maximum altitude 23:17:05 86° 281° (WNW) 900 4.3 -20.0°
Drops below altitude 10° 23:23:01 10° 12° (NNE) 2,588 7.9 -20.0°
Sets 23:25:30 0° 13° (NNE) 3,539 9.0 -20.0°
